Regional Weather Roundup
Issued by NWS

Home | Current Version | Previous Version | Graphics & Text | Print | Product List | Glossary On
Versions: 1 2 3 4 5 6 7 8 9 10 11 12 13 14 15 16 17 18 19 20 21 22 23 24 25 26 27 28 29 30 31 32 33 34 35 36 37 38 39 40 41 42 43 44 45 46 47 48 49 50
000
ASUS43 KMKX 010411
RWRWI

WISCONSIN REGIONAL WEATHER ROUNDUP
NATIONAL WEATHER SERVICE MILWAUKEE/SULLIVAN WI
1100 PM CDT TUE MAY 31 2016

NOTE: "FAIR" INDICATES FEW OR NO CLOUDS BELOW 12,000 FEET WITH NO
SIGNIFICANT WEATHER AND/OR OBSTRUCTIONS TO VISIBILITY.

WIZ001-002-006>008-014>016-023>028-010500-
NORTHWEST WISCONSIN

CITY           SKY/WX    TMP DP  RH WIND       PRES   REMARKS
SUPERIOR ARPT  CLOUDY    42  42  97 E7        29.89F
ASHLAND        CLOUDY    47  47 100 CALM      29.88S FOG
HAYWARD        CLOUDY    62  57  83 S3        29.87F
SIREN          CLOUDY    63  61  93 S7        29.85F
CUMBERLAND     CLOUDY    61  59  94 S14       29.88S
RICE LAKE      CLOUDY    61  59  92 SE5       29.89F
CHETEK         CLOUDY    61  61 100 S6        29.88F
LADYSMITH      CLOUDY    61  60  96 S5        29.91R
EAU CLAIRE     CLOUDY    62  61  96 S7        29.87F
MENOMONIE      CLOUDY    64  63  99 S6        29.89S
NEW RICHMOND   CLOUDY    61  60  97 SE5       29.87F
OSCEOLA        CLOUDY    63  63 100 S7        29.88F
$$

WIZ003>005-009-010-017-018-010500-
NORTH CENTRAL WISCONSIN

CITY           SKY/WX    TMP DP  RH WIND       PRES   REMARKS
MANITOWISH WTR RAIN      58  58 100 SE5       29.91F
ARBOR VITAE    LGT RAIN  59  58  94 SE8       29.92F
WOODRUFF       LGT RAIN  59  58  94 SE8       29.92F
RHINELANDER    LGT RAIN  59  55  87 SE9       29.94F
EAGLE RIVER    LGT RAIN  59  51  76 SE10      29.93F
LAND O LAKES   DRIZZLE   59  53  78 SE8       29.94F
PHILLIPS       DRIZZLE   59  59 100 SE3       29.89F
TOMAHAWK       RAIN      59  58  95 SE3       29.93S
MEDFORD        RAIN      60  60 100 SE9       29.91S
MERRILL        LGT RAIN  62  62 100 SE8       29.93F
$$

WIZ029-030-035-036-043>047-010500-
CENTRAL WISCONSIN

CITY           SKY/WX    TMP DP  RH WIND       PRES   REMARKS
WAUSAU         LGT RAIN  63  61  93 S12       29.92S
MOSINEE        LGT RAIN  61  61 100 S8        29.95S
MARSHFIELD     RAIN      62  59  90 SE7       29.92F
STEVENS POINT  LGT RAIN  60  60  98 S3        29.96F
WAUPACA        CLOUDY    67  62  84 CALM      29.96R
WAUTOMA        CLOUDY   N/A N/A N/A CALM      29.95R
WISC RAPIDS    RAIN      61  59  93 SE5       29.95F
CAMP DOUGLAS   LGT RAIN  62  62 100 S9        29.92F
$$

WIZ011>013-019>022-031-037>040-048>050-010500-
NORTHEAST WISCONSIN

CITY           SKY/WX    TMP DP  RH WIND       PRES   REMARKS
ANTIGO         CLOUDY    58  56  96 SE8       29.95F
SHAWANO        CLOUDY    62  57  84 E5        29.96S
OCONTO         CLOUDY    58  58 100 CALM      29.95S
STURGEON BAY   LGT RAIN  60  50  69 E8        29.97F
GREEN BAY      CLOUDY    59  53  80 E5        29.95F
MANITOWOC      CLOUDY    56  50  80 SE6       29.96F
APPLETON       CLOUDY    63  55  77 VRB5      29.95R
CLINTONVILLE   CLOUDY    63  55  77 SE5       29.96R
OSHKOSH        CLOUDY    65  59  81 SE8       29.95R
$$

WIZ032>034-041-042-053>061-010500-
SOUTHWEST WISCONSIN

CITY           SKY/WX    TMP DP  RH WIND       PRES   REMARKS
LA CROSSE      CLOUDY    64  64 100 CALM      29.90R
SPARTA         DRIZZLE   62  62 100 SE5       29.91F
VIROQUA        CLOUDY    62  62 100 SE8       29.92F
BOSCOBEL       NOT AVBL
PRAIRIE DU CHI LGT RAIN  64  62  96 SE5       29.92S
PLATTEVILLE    CLOUDY    64  63  94 CALM      29.95R
$$

WIZ056-057-062-063-064-067-068-010500-
SOUTH CENTRAL WISCONSIN

CITY           SKY/WX    TMP DP  RH WIND       PRES   REMARKS
REEDSBURG      RAIN      63  63  99 SW5       29.96R
BARABOO/DELLS  HVY RAIN  65  60  83 W5        29.96R
LONE ROCK      HVY RAIN  64  63  96 SW3       29.96S FOG
MINERAL POINT  LGT RAIN  66  63  88 CALM      29.96S
MADISON        CLOUDY    66  61  84 S8        29.93S
MIDDLETON      CLOUDY    67  60  78 S7        29.95R
WATERTOWN      MOCLDY    64  64 100 CALM      29.95R
MONROE         CLOUDY    64  61  88 S10       29.95S
JANESVILLE     CLOUDY    66  61  82 SE8       29.95F
$$

WIZ051-052-058>065-066-070>072-010500-
SOUTHEAST WISCONSIN

CITY           SKY/WX    TMP DP  RH WIND       PRES   REMARKS
MILWAUKEE      CLOUDY    60  55  83 SE7       29.97R
WAUKESHA       CLOUDY    63  59  88 SE6       29.98R
MILWAUKEE/TIMM CLOUDY    61  52  72 CALM      29.99R
RACINE         CLOUDY    61  55  81 SE6       29.99R
BURLINGTON     CLOUDY    62  60  94 CALM      29.97S
KENOSHA        CLOUDY    63  59  87 E6        29.99R
FOND DU LAC    CLOUDY    64  59  83 S9        29.95R
SHEBOYGAN      CLOUDY    56  51  84 CALM      29.97S
WEST BEND      CLOUDY    55  52  88 CALM      29.97S
JUNEAU         MOCLDY    63  60  89 SE5       29.96S
$$

LSZ147-162-010500-
LAKE SUPERIOR

STATION/POSITION TIME  TEMP    WIND        PRES    WAVE
                       AIR SEA DIR/SP/G            HT/PER
                 (UTC) (F)     (DEG/KT/KT) (MB)    (FT/S)
W MID LAKE BUOY  0350   41 38   70/ 10/ 12 1012.5F   3/ 5
DEVILS ISLAND    0400   42      50/  6/  7 1012.2F
SAXON HARBOR     0340   49     300/  3/  7 1010.8F
$$

LMZ867-665-643>646-010500-
LAKE MICHIGAN

STATION/POSITION TIME  TEMP    WIND        PRES    WAVE
                       AIR SEA DIR/SP/G            HT/PER
                 (UTC) (F)     (DEG/KT/KT) (MB)    (FT/S)
CHAMBERS ISLAND  0300   63      CALM  /  5 1015.2S
N MID LAKE BUOY  0350   53 48  110/  8/  8 1014.7F   1/ 3
NORTHPORT PIER   0300   58     130/  3/  6 1015.6S
SISTER BAY       0320   59     130/  8/ 12   N/A
ALGOMA LAKESHORE 0317             CALM       N/A
KEWAUNEE LAKESHO 0300                      1014.3F
SHEBOYGAN LAKESH 0400   54      CALM  /  2 1015.0F
PORT WASHINGTON  0300   55      20/  3/  5 1015.6
S MID LAKE BUOY  0350   58 54   90/ 10/ 12 1014.4R   1/ 4
KENOSHA   LAKESH 0400   59     180/  5/  7 1015.2R
$$

TC  - TEMPERATURE IN CELSIUS
VSB - VISIBILITY IN STATUTE MILES
WCI - WIND CHILL INDEX
HX  - HEAT INDEX





USA.gov is the U.S. government's official web portal to all federal, state and local government web resources and services.